fusioninventory-agent [kinetic/i386]

Version Triggers Date Duration Requester Result
1:2.6-2 libjson-pp-perl/4.10000-1 2022-06-25 19:00:52 UTC 0h 19m 04s - fail logartifacts
1:2.6-2 libwww-perl/6.67-1 2022-06-20 02:40:21 UTC 0h 19m 11s - fail logartifacts
1:2.6-2 libproc-daemon-perl/0.23-2 2022-06-19 17:13:51 UTC 0h 14m 24s - fail logartifacts
1:2.6-2 libsocket-getaddrinfo-perl/0.22-4 2022-06-19 14:58:31 UTC 0h 18m 55s - fail logartifacts
1:2.6-2 libnet-nbname-perl/0.26-3 2022-06-18 06:22:55 UTC 0h 29m 49s - fail logartifacts
1:2.6-2 libnet-cups-perl/0.64-2 2022-06-18 05:53:05 UTC 0h 25m 52s - fail logartifacts
1:2.6-2 libsocket-getaddrinfo-perl/0.22-3.1 2022-06-16 07:46:00 UTC 0h 38m 30s - fail logartifacts
1:2.6-2 libproc-daemon-perl/0.23-1.1 2022-06-15 23:37:07 UTC 0h 25m 36s - fail logartifacts
1:2.6-2 libxml-treepp-perl/0.43-1.1 2022-06-15 11:09:04 UTC 0h 51m 07s - fail logartifacts
1:2.6-2 usb.ids/2022.05.20-1 2022-06-11 07:48:59 UTC 0h 13m 41s - fail logartifacts
1:2.6-2 libjson-pp-perl/4.09000-1 2022-05-26 03:20:19 UTC 0h 36m 46s - fail logartifacts
1:2.6-2 libwww-perl/6.66-1 2022-05-22 08:21:14 UTC 0h 20m 21s - fail logartifacts
1:2.6-2 usb.ids/2022.05.09-1 2022-05-17 09:24:42 UTC 0h 08m 50s - fail logartifacts
1:2.6-2 libxml-xpath-perl/1.47-1 2022-05-16 01:17:12 UTC 0h 21m 32s - fail logartifacts
1:2.6-2 libwww-perl/6.65-1 2022-05-15 08:31:23 UTC 0h 12m 54s - fail logartifacts
1:2.6-2 libtext-template-perl/1.61-1 2022-05-09 02:27:05 UTC 0h 31m 09s - fail logartifacts
1:2.6-2 libfile-which-perl/1.27-1 2022-05-02 20:09:22 UTC 0h 10m 15s - fail logartifacts
1:2.6-2 libwww-perl/6.64-1 2022-04-30 22:21:57 UTC 0h 34m 39s - fail logartifacts
1:2.6-2 libjson-pp-perl/4.08000-1 2022-04-30 10:50:59 UTC 0h 42m 52s - fail logartifacts
1:2.6-2 libhttp-daemon-perl/6.14-1 2022-04-30 03:19:42 UTC 0h 11m 03s - fail logartifacts
1:2.6-2 pci.ids/0.0~2022.04.15-1 2022-04-29 20:24:01 UTC 0h 19m 41s - fail logartifacts
1:2.6-2 migration-reference/0 2021-11-07 16:43:36 UTC 0h 17m 21s - fail logartifacts